Aérodrome :
LOGIN :

S'inscrire | Disclaimer

   EN    FR    IT 

 










Légende :    VFR   VFR Marginal   IFR   IFR Intensif   IFR Très Intensif
Visi : 
Plafond : 
>= 8 km
>= 3000ft
5 à 8 km
1000 à 3000 ft
1500m à 5 km
500 à 1000 ft
800 à 1500m
200 à 500 ft
< 800m
< 200 ft
Symboles :   Orages  Brouillard  Fortes neiges  Fortes précipitations  Vent > 20 kt
SIGMETs :   Divers  Orages  Givrage  Turbulence  Onde Orograph.  Cendres Volcan.







- Altitude de l'aérodrome : 291 ft
- Code IATA : ORY
- Voir les cartes d'approche


LFPO - Paris-Orly

DERNIER METAR :
  • 160400Z 03004KT CAVOK 13/10 Q1019 NOSIG

METARs EXPIRÉS :
  • 160330Z 05005KT CAVOK 14/10 Q1019 NOSIG
  • 160300Z 03004KT CAVOK 14/10 Q1019 NOSIG
  • 160230Z 04003KT CAVOK 14/10 Q1019 NOSIG
  • 160200Z 04004KT CAVOK 14/10 Q1020 NOSIG
  • 160130Z 04003KT CAVOK 15/10 Q1020 NOSIG
  • 160100Z 03004KT CAVOK 15/10 Q1020 NOSIG

TAF TAF LFPO
Valide du 16 à 00h jusqu'au 17 à 06h UTC


152300Z 1600/1706 02006KT CAVOK
ATIS : +33 1 49 75 65 80
Pas de NOTAMs connus pour ce terrain.



MET'MAP, la Météo Aéronautique d'un coup d'oeil ! - Copyright ORBIFLY Décembre 2007 - Disclaimer

ORBIFLY MET'MAP TEAM :

Programmation & Développement : Alexandra Zaïnal
Conception & Développement : Baudouin d'Aumeries
Co-Programmation & Développement : Marc-Olivier Méhu
Soutien technique & logistique : Manuel Goepfert

Contact : metmap@orbifly.com




SOURCES & CREDITS :

   NOAA